GW5225 Weather Reports


time (UTC)temp
F
wind
direction
speed
knots
gust
knots
rain 1hr
in
rain 24hr
in
rain mn
in
humidity
%
barometer
mb
20260504015502 49 51 0.9 1.7 0.00 0.00 0.00 57 976.0
20260504015005 50 284 0.9 0.9 0.00 0.00 0.00 55 976.0
20260504014001 51 37 0.0 1.7 0.00 0.00 0.00 53 975.6
20260504013501 51 315 0.0 1.7 0.00 0.00 0.00 53 975.6
20260504013000 51 322 0.0 0.9 0.00 0.00 0.00 52 975.3
20260504012500 52 147 0.0 0.9 0.00 0.00 0.00 51 975.6
20260504012000 52 50 0.0 0.9 0.00 0.00 0.00 49 975.6
20260504011500 52 129 0.9 1.7 0.00 0.00 0.00 48 975.6
20260504011000 53 315 0.0 1.7 0.00 0.00 0.00 48 975.6
20260504010459 53 33 0.0 1.7 0.00 0.00 0.00 47 975.6
20260504005959 53 135 0.0 1.7 0.00 0.00 0.00 47 975.6
20260504004958 54 29 0.9 2.6 0.00 0.00 0.00 45 975.3
20260504004459 54 297 0.0 2.6 0.00 0.00 0.00 45 975.6
20260504003958 54 33 0.0 2.6 0.00 0.00 0.00 45 975.6
20260504003458 55 44 0.0 3.5 0.00 0.00 0.00 44 975.6
20260504002958 55 5 1.7 3.5 0.00 0.00 0.00 44 975.6
20260504002457 55 349 2.6 4.3 0.00 0.00 0.00 43 975.3
20260504001957 56 335 0.0 5.2 0.00 0.00 0.00 42 975.3
20260504001456 56 13 2.6 6.1 0.00 0.00 0.00 42 975.3
20260504000956 56 228 4.3 6.1 0.00 0.00 0.00 42 975.6
20260504000456 56 338 1.7 3.5 0.00 0.00 0.00 42 975.6
20260503235956 56 250 0.9 3.5 0.00 0.00 0.00 42 975.6
20260503234959 56 356 0.0 5.2 0.00 0.00 0.00 41 975.6
20260503233955 57 331 4.3 5.2 0.00 0.00 0.00 40 976.0
20260503233454 57 273 0.9 5.2 0.00 0.00 0.00 40 976.0
20260503232954 57 338 3.5 6.1 0.00 0.00 0.00 40 975.6
20260503232454 57 351 1.7 7.8 0.00 0.00 0.00 39 975.6
20260503231953 57 351 0.9 7.8 0.00 0.00 0.00 39 975.6
20260503231453 57 265 3.5 7.8 0.00 0.00 0.00 38 975.6
20260503230953 58 289 2.6 11.3 0.00 0.00 0.00 38 975.6
20260503230453 58 20 0.9 11.3 0.00 0.00 0.00 39 976.0
20260503225953 58 355 0.0 7.8 0.00 0.00 0.00 39 976.0
20260503225452 58 339 2.6 5.2 0.00 0.00 0.00 40 975.6
20260503224952 58 336 0.9 8.7 0.00 0.00 0.00 39 975.6
20260503224451 58 239 1.7 8.7 0.00 0.00 0.00 38 976.0
20260503223951 58 320 4.3 8.7 0.00 0.00 0.00 39 975.6
20260503223451 58 232 1.7 11.3 0.00 0.00 0.00 38 976.0
20260503222950 58 2 0.9 11.3 0.00 0.00 0.00 37 976.0
20260503222450 58 283 3.5 9.6 0.00 0.00 0.00 38 976.0
20260503221950 59 310 2.6 7.8 0.00 0.00 0.00 38 976.0
20260503221450 59 229 3.5 7.8 0.00 0.00 0.00 37 976.0
20260503220449 59 318 0.0 7.0 0.00 0.00 0.00 38 976.0
20260503215949 58 41 1.7 9.6 0.00 0.00 0.00 37 976.0
20260503215449 59 225 3.5 9.6 0.00 0.00 0.00 35 976.0
20260503214949 59 332 3.5 7.0 0.00 0.00 0.00 37 976.0
20260503214448 59 220 4.3 7.8 0.00 0.00 0.00 36 976.0
20260503213451 59 326 7.0 8.7 0.00 0.00 0.00 37 976.3
20260503212948 60 311 6.1 8.7 0.00 0.00 0.00 36 976.0
20260503212447 60 65 1.7 9.6 0.00 0.00 0.00 37 976.3
20260503211947 58 304 5.2 13.9 0.00 0.00 0.00 36 976.0
20260503211447 58 306 2.6 13.9 0.00 0.00 0.00 36 976.0
20260503210946 59 261 1.7 8.7 0.00 0.00 0.00 36 976.3
20260503210446 59 322 2.6 11.3 0.00 0.00 0.00 34 976.0
20260503205445 58 199 0.9 11.3 0.00 0.00 0.00 36 976.0
20260503204945 60 330 7.0 11.3 0.00 0.00 0.00 34 976.0
20260503203944 59 304 4.3 13.0 0.00 0.00 0.00 37 976.0
20260503203444 57 254 0.0 13.0 0.00 0.00 0.00 37 976.0
20260503202444 60 251 6.1 10.4 0.00 0.00 0.00 34 976.0
20260503201943 59 359 1.7 7.8 0.00 0.00 0.00 36 976.3
20260503201443 58 216 3.5 6.1 0.00 0.00 0.00 37 976.3
20260503200943 58 265 2.6 7.0 0.00 0.00 0.00 36 976.7
20260503200443 59 244 5.2 7.0 0.00 0.00 0.00 35 976.7
20260503195942 59 213 3.5 7.8 0.00 0.00 0.00 36 976.7
20260503195442 58 294 1.7 9.6 0.00 0.00 0.00 36 976.7
20260503194942 60 242 7.0 9.6 0.00 0.00 0.00 35 977.0
20260503194441 59 252 3.5 16.5 0.00 0.00 0.00 34 976.7
20260503193941 59 231 2.6 16.5 0.00 0.00 0.00 35 977.0
20260503193430 58 87 1.7 13.0 0.00 0.00 0.00 36 977.0
20260503192430 59 290 5.2 9.6 0.00 0.00 0.00 38 977.4
20260503191930 58 112 3.5 9.6 0.00 0.00 0.00 35 977.4
20260503190930 58 332 2.6 11.3 0.00 0.00 0.00 36 977.4
20260503190430 59 222 7.0 8.7 0.00 0.00 0.00 37 977.4
20260503185930 58 343 3.5 13.9 0.00 0.00 0.00 37 977.8
20260503185430 59 291 5.2 13.9 0.00 0.00 0.00 35 977.8
20260503184930 59 321 5.2 9.6 0.00 0.00 0.00 35 977.8
20260503184430 59 309 4.3 12.2 0.00 0.00 0.00 35 977.8
20260503183930 58 313 4.3 12.2 0.00 0.00 0.00 33 977.8
20260503183430 58 333 6.1 11.3 0.00 0.00 0.00 35 978.1
20260503182930 58 293 4.3 14.8 0.00 0.00 0.00 36 978.1
20260503182430 57 325 2.6 14.8 0.00 0.00 0.00 34 977.8
20260503181930 57 307 9.6 13.9 0.00 0.00 0.00 37 977.8
20260503181429 58 19 1.7 10.4 0.00 0.00 0.00 37 978.1
20260503180930 58 286 5.2 10.4 0.00 0.00 0.00 37 978.5
20260503180430 58 335 5.2 11.3 0.00 0.00 0.00 37 978.1
20260503175930 57 238 1.7 11.3 0.00 0.00 0.00 37 978.5
20260503175430 57 334 4.3 9.6 0.00 0.00 0.00 39 978.5
20260503174929 57 250 2.6 11.3 0.00 0.00 0.00 37 978.5
20260503174430 56 313 7.8 11.3 0.00 0.00 0.00 38 978.1
20260503173930 57 300 7.8 11.3 0.00 0.00 0.00 38 978.5
20260503173434 57 313 5.2 10.4 0.00 0.00 0.00 39 978.1
20260503172934 56 325 3.5 10.4 0.00 0.00 0.00 41 978.5
20260503172433 55 304 4.3 8.7 0.00 0.00 0.00 40 978.5
20260503171434 57 184 1.7 8.7 0.00 0.00 0.00 42 978.8
20260503170933 56 298 3.5 8.7 0.00 0.00 0.00 40 978.8
20260503170433 56 10 2.6 8.7 0.00 0.00 0.00 41 978.8
20260503150927 50 320 1.7 8.7 0.00 0.00 0.00 46 979.8
20260503150426 51 321 3.5 9.6 0.00 0.00 0.00 43 980.1
20260503130920 44 41 0.9 3.5 0.00 0.00 0.00 56 980.1
20260503130423 44 206 1.7 2.6 0.00 0.00 0.00 59 980.1
20260503110413 34 53 0.0 1.7 0.00 0.00 0.00 92 979.8
20260503081403 34 129 0.0 0.0 0.00 0.00 0.00 97 979.1
20260503080903 34 315 0.0 0.0 0.00 0.00 0.00 95 979.1
20260503080403 35 55 0.0 0.0 0.00 0.00 0.00 93 979.1
20260503072901 35 353 0.0 0.0 0.00 0.01 0.00 93 979.1
20260503071900 35 44 0.0 0.0 0.00 0.01 0.00 93 979.1
20260503071400 36 44 0.0 0.0 0.00 0.01 0.00 91 979.1
20260503070900 36 44 0.0 0.9 0.00 0.01 0.00 90 979.1
20260503070400 36 76 0.0 0.9 0.00 0.01 0.00 87 979.1
20260503054856 38 113 0.0 0.9 0.00 0.03 0.00 78 979.5
20260503054355 38 309 0.0 0.9 0.00 0.03 0.00 79 979.5
20260503053855 38 13 0.0 1.7 0.00 0.03 0.00 79 979.5
20260503053355 38 205 0.0 1.7 0.00 0.03 0.00 80 979.5
20260503052855 38 69 0.0 1.7 0.00 0.03 0.00 80 979.5
20260503052354 38 269 0.0 1.7 0.00 0.03 0.00 81 979.5
20260503051354 38 32 0.0 0.0 0.00 0.03 0.00 81 979.5
20260503050853 38 32 0.0 0.0 0.00 0.03 0.00 79 979.5
20260503050353 39 32 0.0 0.0 0.00 0.03 0.00 79 979.5
20260503045353 39 32 0.0 0.9 0.00 0.03 0.00 77 979.5
20260503044852 39 32 0.0 0.9 0.00 0.03 0.00 76 979.5
20260503044352 39 22 0.0 0.9 0.00 0.03 0.00 76 979.5
20260503043852 39 249 0.0 0.9 0.00 0.03 0.00 76 979.5
20260503043352 39 142 0.0 0.9 0.00 0.03 0.00 77 979.5
20260503042855 39 60 0.0 0.9 0.00 0.03 0.00 78 979.5
20260503041351 39 322 0.0 1.7 0.00 0.03 0.00 79 979.5
20260503040850 39 251 0.9 1.7 0.00 0.03 0.00 80 979.8
20260503035849 39 282 0.0 0.9 0.00 0.03 0.03 80 979.5
20260503035349 39 282 0.0 0.9 0.00 0.03 0.03 79 979.8
20260503034849 39 327 0.0 0.0 0.00 0.03 0.03 80 979.8
20260503034349 39 37 0.0 0.0 0.00 0.03 0.03 78 979.8
20260503033848 39 37 0.0 0.0 0.00 0.03 0.03 80 979.8
20260503033348 39 129 0.0 0.0 0.00 0.03 0.03 80 979.8
20260503032848 39 49 0.0 0.9 0.00 0.03 0.03 81 979.8
20260503032348 38 32 0.0 0.9 0.00 0.03 0.03 80 979.5
20260503031847 38 32 0.0 0.0 0.00 0.03 0.03 80 979.8
20260503031347 38 202 0.0 0.0 0.00 0.03 0.03 81 979.8
20260503030846 38 217 0.0 0.0 0.00 0.03 0.03 81 979.8
20260503030346 38 44 0.0 0.0 0.00 0.03 0.03 81 979.8
20260503025846 38 230 0.0 0.0 0.00 0.03 0.03 80 979.8
20260503025346 38 129 0.0 0.0 0.00 0.03 0.03 80 979.8
20260503024846 38 321 0.0 0.0 0.00 0.03 0.03 80 979.8
20260503024345 38 142 0.0 0.0 0.00 0.03 0.03 81 979.8
20260503023845 38 142 0.0 0.0 0.00 0.03 0.03 81 979.8
20260503023345 38 142 0.0 0.0 0.00 0.03 0.03 81 980.1
20260503022348 38 142 0.0 0.9 0.00 0.03 0.03 80 980.1
20260503021845 38 89 0.0 0.9 0.00 0.03 0.03 80 980.1
20260503021343 38 304 0.0 0.0 0.00 0.03 0.03 81 980.1
20260503020843 39 304 0.0 0.0 0.00 0.03 0.03 79 980.1
20260503020343 39 37 0.0 0.0 0.00 0.03 0.03 78 980.1
20260503015843 39 37 0.0 0.0 0.00 0.03 0.03 77 979.8